Location: Grundy Observatory
(40.0525°N, 76.3328°W)
Time: 02:10:49
(UTC-04:00)

Daily predictions for brighter satellites

Satellite Brightness Start Highest point End
(mag) Time Altitude Azimuth Time Altitude Azimuth Time Altitude Azimuth
Cosmos 44 Rocket 3.6 00:03:45 47° WSW 00:05:08 68° WNW 00:10:23 10° NNE
NOSS 2-3 (D) 4.3 00:05:33 41° WSW 00:07:09 64° NW 00:12:45 10° NNE
Cosmos 389 Rocket 3.7 00:04:15 10° NNW 00:06:44 40° NW 00:06:44 40° NW
Terra 3.6 00:09:58 20° WSW 00:10:50 21° W 00:14:24 10° NW
In-Cosmos 22 Rocket 4.2 00:11:15 62° SSW 00:12:14 81° W 00:18:03 10° N
Okean 1-7 3.5 00:08:25 10° NNW 00:12:15 53° WNW 00:12:15 53° WNW
Cosmos 158 Rocket 3.8 00:07:54 10° NNW 00:13:11 87° WSW 00:13:25 82° S
ALOS 2 3.2 00:13:37 47° ENE 00:13:37 47° ENE 00:17:35 10° N
GEOS 3 Rocket 4.5 00:13:50 33° E 00:15:28 43° NE 00:20:21 10° NNW
Uosat 12 SS-18 rocket 4.2 00:16:26 85° WNW 00:16:27 85° WNW 00:21:00 10° NNE
Meteor 2-3 Rocket 3.7 00:17:03 63° SSW 00:17:59 80° W 00:23:44 10° N
SL-08 ROCKET BODY 4.4 00:23:36 62° SSW 00:24:43 86° W 00:30:55 10° N
Meteor 2-10 Rocket 3.6 00:22:19 10° N 00:27:59 80° E 00:28:33 71° SE
Cosmos 2084 Rocket 4.3 00:28:49 44° NNW 00:28:49 44° NNW 00:31:51 10° NNE
Cosmos 2263 Rocket 3.5 00:29:49 27° E 00:29:49 27° E 00:33:55 10° NE
Meteor 1-10 Rocket 4.3 00:26:43 10° N 00:32:40 71° E 00:33:23 64° SE
Cosmos 921 Rocket 3.8 00:37:04 44° NE 00:37:04 44° NE 00:40:06 10° NNE
Cosmos 1356 Rocket 4.2 00:40:30 48° NNE 00:40:30 48° NNE 00:43:31 10° N
Lacrosse 4 Rocket 3.6 00:37:49 10° WNW 00:40:03 19° W 00:40:03 19° W
Cosmos 1674 Rocket 3.9 00:38:39 10° N 00:42:28 63° NNE 00:42:28 63° NNE
Cosmos 1607 3.8 00:38:38 10° NNW 00:44:50 85° ENE 00:45:42 67° SE
SL-16 R/B 3.6 00:41:38 10° NW 00:46:05 24° WSW 00:46:17 24° WSW
ATLAS 3B R/B 3.6 00:40:19 10° NW 00:46:08 30° WSW 00:46:35 30° WSW
Cosmos 1610 Rocket 4.5 00:46:43 59° SW 00:47:44 70° W 00:53:52 10° N
Nadezhda 3 Rocket 3.9 00:43:11 10° N 00:49:26 81° E 00:50:20 67° SSE
CZ-2C R/B 3.2 00:45:29 10° NNE 00:50:05 42° E 00:50:05 42° E
Cosmos 1689 Rocket 4.5 00:52:09 27° NNW 00:52:09 27° NNW 00:53:46 10° NNW
Cosmos 1975 Rocket 4.4 00:51:07 10° NNE 00:54:40 32° ENE 00:54:40 32° ENE
Cosmos 44 4.0 00:57:49 48° W 00:58:49 55° NW 01:04:11 10° NNE
Cosmos 1782 3.9 00:56:18 10° NNW 00:59:06 43° NNW 00:59:06 43° NNW
Cosmos 1908 Rocket 4.1 01:02:05 56° NNE 01:02:05 56° NNE 01:05:34 10° N
USA 238 DEB 3.9 00:54:38 10° NW 01:01:26 54° WSW 01:02:06 52° SW
USA 238 3.9 00:54:44 10° NW 01:01:32 54° WSW 01:02:13 52° SW
Cosmos 1340 Rocket 4.4 01:05:03 29° NW 01:05:03 29° NW 01:07:53 10° N
Cosmos 1943 3.1 01:01:58 10° NNW 01:07:41 79° ENE 01:08:08 74° ESE
Okean 3 4.3 01:05:16 10° N 01:08:50 48° NE 01:08:50 48° NE
BREEZE-M DEB (TANK) 3.2 01:03:53 10° WNW 01:09:06 51° NW 01:09:06 51° NW
Geosat 4.0 01:04:54 10° NNE 01:09:37 70° E 01:09:37 70° E
Landsat 5 4.3 01:10:52 48° WNW 01:10:52 48° WNW 01:14:35 10° NNW
Cosmos 1238 Rocket 4.3 01:14:47 10° N 01:16:55 31° NNW 01:16:55 31° NNW
Cosmos 1295 Rocket 4.4 01:17:48 67° SSE 01:18:40 81° E 01:25:02 10° N
Cosmos 2154 Rocket 4.3 01:17:41 50° WSW 01:18:49 56° W 01:25:01 10° N
H-2A R/B 3.9 01:15:05 10° N 01:18:48 32° WNW 01:18:48 32° WNW
SeaSat 1 3.9 01:23:17 26° W 01:23:17 26° W 01:26:28 10° NW
Cosmos 1606 4.0 01:19:04 10° NNW 01:21:35 38° NNW 01:21:35 38° NNW
Meteor 1-27 Rocket 3.7 01:19:56 10° NNW 01:25:44 71° W 01:26:02 69° WSW
Helios 1A Rocket 3.9 01:23:21 10° N 01:26:47 43° NW 01:26:47 43° NW
RESURS DK-1 3.3 01:32:36 45° NE 01:32:36 45° NE 01:35:36 10° NNE
Cosmos 1408 4.0 01:33:18 39° N 01:33:18 39° N 01:35:48 10° N
CZ-4C R/B 2.9 01:25:03 10° NW 01:32:12 66° WSW 01:33:37 56° SSW
NOSS 3-2 (C) 3.9 01:27:41 10° NW 01:35:17 88° WSW 01:38:05 46° SSE
CZ-4B R/B 4.3 01:37:17 12° WNW 01:37:17 12° WNW 01:37:46 10° NW
Cosmos 1624 Rocket 4.3 01:35:46 55° E 01:35:46 55° E 01:40:45 10° NNE
Meteor 2-13 Rocket 4.4 01:40:08 63° SW 01:40:59 71° W 01:47:08 10° N
Cosmos 1867 3.4 01:39:52 10° NW 01:45:22 80° WSW 01:45:23 80° WSW
CZ-2C R/B 3.1 01:47:42 73° S 01:48:16 83° WSW 01:53:53 10° NNW
Cosmos 1959 Rocket 4.4 01:53:04 62° SW 01:54:05 77° W 02:00:20 10° N
Cosmos 1825 3.8 01:57:17 28° NW 01:57:17 28° NW 01:59:44 10° NNW
NOSS 3-4 (A) 4.1 01:54:26 35° WSW 01:56:49 52° NW 02:03:16 10° NNE
NOSS 3-2 (A) 4.1 01:49:27 10° NW 01:56:50 57° WSW 01:58:20 50° SSW
NOSS 3-4 (C) 4.1 01:54:33 36° WSW 01:56:55 52° NW 02:03:21 10° NNE
SL-08 R/B 4.4 01:57:58 60° SW 01:59:02 73° W 02:05:23 10° N
SL-8 Rocket 4.3 02:00:20 49° WSW 02:01:30 56° W 02:07:44 10° N
BREEZE-M DEB (TANK) 3.7 01:52:46 10° WNW 02:04:49 75° SSW 02:05:38 62° SSE
Meteor 2-8 Rocket 4.4 01:58:50 10° N 02:04:57 84° E 02:06:15 58° SSE
Cosmos 1242 Rocket 3.9 02:03:24 10° N 02:05:38 37° N 02:05:38 37° N
Cosmos 1844 Rocket 3.4 02:08:12 39° SE 02:08:56 41° ESE 02:14:12 10° NE
Cosmos 1339 Rocket 4.4 02:03:27 10° N 02:09:34 83° E 02:10:55 57° SSE
Gbstr 26 Del rocket 3.9 02:13:30 37° ENE 02:13:30 37° ENE 02:16:00 10° ENE
Cosmos 1812 3.9 02:08:38 10° N 02:12:12 37° ENE 02:12:12 37° ENE
Cosmos 2263 Rocket 3.0 02:11:29 35° W 02:12:53 41° WNW 02:18:14 10° N
Cosmos 2218 Rocket 4.3 02:14:09 46° WSW 02:15:24 53° W 02:21:37 10° N
Okean 2 Rocket 4.3 02:15:39 32° WNW 02:15:39 32° WNW 02:19:30 10° NNW
Cosmos 1190 Rocket 3.8 02:17:48 10° NNW 02:23:03 84° WSW 02:23:36 72° S
Cosmos 2366 rocket 4.4 02:24:58 43° WSW 02:26:14 49° WNW 02:32:14 10° N
Cosmos 1844 4.4 02:25:12 37° SE 02:26:24 42° ESE 02:31:46 10° NE
ATLAS 5 CENTAUR R/B 4.2 02:23:08 10° NNW 02:28:15 29° NE 02:33:41 10° ESE
Cosmos 967 Rocket 4.4 02:27:34 53° SSW 02:29:16 90° ESE 02:35:47 10° NNE
Cosmos 1300 Rocket 3.7 02:29:48 59° ESE 02:29:57 60° E 02:34:16 10° NNE
CZ-2C R/B 4.1 02:26:23 10° NNW 02:30:24 23° WNW 02:31:36 21° W
SL-08 R/B 4.3 02:29:13 28° ESE 02:31:17 44° ENE 02:35:55 10° N
Abrixas rocket 4.2 02:31:35 25° NNW 02:32:10 26° NNW 02:35:04 10° NE
Cosmos 2056 Rocket 4.0 02:32:51 44° W 02:33:44 48° WNW 02:38:48 10° N
Cosmos 407 Rocket 3.3 02:30:35 10° NNW 02:35:46 81° WSW 02:36:34 64° S
Cosmos 2278 Rocket 3.2 02:36:48 29° SE 02:38:27 35° ESE 02:43:33 10° NE
Cosmos 724 4.3 02:35:46 10° NNW 02:41:54 82° WSW 02:44:32 37° SSE
NOSS 2-2 (E) 3.7 02:43:13 57° SE 02:43:21 57° ESE 02:48:00 10° NE
AQUA 4.3 02:39:52 10° NNE 02:44:31 51° E 02:45:34 42° SE
Cosmos 1536 Rocket 4.1 02:40:41 10° NNW 02:44:35 45° W 02:44:35 45° W
COSMOS 2406 3.2 02:39:49 10° NNW 02:45:33 66° WSW 02:46:47 52° SSW
Cosmos 676 Rocket 3.8 02:42:13 10° NNW 02:47:25 85° WSW 02:48:42 52° S
USA 161 4.2 02:49:31 14° E 02:50:27 16° ENE 02:52:20 10° NNE
Cosmos 1461 3.6 02:50:09 46° SE 02:50:44 49° ESE 02:55:13 10° NE
Okean 1 3.2 02:46:44 10° N 02:50:39 80° WNW 02:50:39 80° WNW
SL-27 R/B 3.6 02:52:20 10° NNW 02:54:52 37° NW 02:54:52 37° NW
Iridium 4 Rocket 4.0 02:52:07 10° NNW 02:56:41 42° W 02:57:15 40° WSW
MINOTAUR IV R/B 4.5 02:59:36 62° S 03:00:17 79° ESE 03:04:48 10° NNE
Landsat 4 4.2 03:01:34 47° WNW 03:01:34 47° WNW 03:04:46 10° NNW
Cosmos 1602 3.9 03:03:09 58° SE 03:03:35 64° E 03:07:24 10° NNE
TIMED 4.4 03:03:09 62° WSW 03:03:43 72° WNW 03:08:06 10° NNE
USA 234 3.4 02:57:48 10° SE 03:04:18 76° NE 03:10:51 10° NW
CENTAUR R/B 3.0 03:02:31 10° NW 03:10:25 79° WSW 03:18:43 10° SSE
Cosmos 1934 Rocket 3.9 03:08:08 37° S 03:10:51 88° W 03:17:02 10° N
NPP 3.6 03:05:51 10° N 03:11:14 73° WNW 03:13:04 42° SSW
Cosmos 1954 Rocket 3.9 03:07:14 10° NNW 03:12:22 66° WSW 03:13:59 42° S
Meteor 2-4 Rocket 4.4 03:08:33 10° N 03:13:47 49° ENE 03:18:18 13° SSE
Okean 1 Rocket 3.5 03:16:19 42° WSW 03:16:59 45° WNW 03:21:18 10° N
CBERS 1 LM4 rocket 4.3 03:13:00 10° NNE 03:17:54 82° ESE 03:19:36 40° S
Cosmos 1315 Rocket 4.4 03:19:38 18° SE 03:21:47 29° E 03:25:18 10° NNE
Okean 1-7 Rocket 4.0 03:19:18 10° NNW 03:23:40 45° W 03:24:24 41° WSW
CZ-2D R/B 3.3 03:19:51 10° NNE 03:24:57 38° E 03:28:56 15° SSE
ERS-2 2.4 03:23:50 10° N 03:27:28 52° WNW 03:28:00 48° WSW
Meteor 2-14 Rocket 4.4 03:27:36 32° SSW 03:30:31 72° W 03:36:37 10° N
Cosmos 1025 Rocket 2.9 03:27:09 10° N 03:31:27 80° W 03:33:09 36° S
Timation 2 Rocket 4.2 03:26:26 10° NNW 03:32:33 67° ENE 03:38:28 10° SE
Cosmos 1023 Rocket 4.4 03:30:15 10° NNW 03:35:16 61° WSW 03:37:49 28° S
Okean O Rocket 4.0 03:35:33 10° NE 03:38:28 17° E 03:41:22 10° SE
Cosmos 1455 Rocket 3.6 03:36:21 23° SSE 03:38:56 56° E 03:43:18 10° NNE
ARIANE 5 R/B 2.6 03:34:54 10° NNE 03:39:54 71° ESE 03:42:55 24° S
Meteor 2-15 4.4 03:35:02 10° NNW 03:41:08 66° W 03:45:04 23° S
IRS-1C 4.4 03:36:57 10° N 03:42:10 56° WNW 03:44:44 29° SW
UNKNOWN OBJECT B 4.3 03:39:56 10° NNE 03:43:41 34° E 03:46:43 14° SSE
Cosmos 1420 Rocket 4.5 03:45:14 28° SW 03:47:41 48° WNW 03:52:48 10° N
GP-B 4.3 03:44:03 10° NNW 03:47:45 26° W 03:48:48 23° WSW
Cosmos 1536 3.2 03:47:37 35° SW 03:48:54 49° W 03:52:52 10° N
Cosmos 1605 Rocket 4.1 03:47:06 26° SSW 03:50:40 61° W 03:56:55 10° N
Cosmos 1356 3.5 03:50:06 40° SW 03:51:08 62° W 03:54:41 10° N
Okean 2 3.3 03:48:27 10° N 03:52:34 87° E 03:55:30 19° S
Cosmos 1844 Rocket 4.0 03:49:51 18° WSW 03:52:55 29° WNW 03:57:50 10° N
Cosmos 2123 Rocket 4.3 03:50:32 10° NNW 03:56:34 48° W 04:00:32 21° SSW
Cosmos 1140 Rocket 4.0 03:52:17 10° NW 03:57:01 38° WSW 03:59:21 24° SSW
SL-16 R/B 2.5 03:51:39 10° SSE 03:57:53 87° WSW 04:04:09 10° NNW
ATLAS 2A CENTAUR R/B 4.1 03:54:19 22° SW 03:59:03 35° S 04:29:34 10° ESE
Resurs 1-4 Rocket 2.2 03:53:43 10° NNE 03:59:04 79° ESE 04:03:07 17° S
Gbstr 26 Del rocket 4.5 03:56:03 11° W 03:59:12 25° NNW 04:02:24 10° NE
Cosmos 1331 Rocket 4.4 03:55:39 17° S 03:59:34 58° ESE 04:04:40 10° NNE
EO 1 Del DPAF 3.2 03:59:24 16° S 04:02:30 84° WSW 04:06:25 10° NNW
Cosmos 1544 Rocket 3.9 04:02:40 26° SW 04:04:53 51° W 04:09:11 10° N
ADEOS 4.3 04:01:20 10° N 04:06:10 39° WNW 04:09:11 21° SW
COSMOS 2487 3.8 04:06:17 10° NW 04:09:10 22° W 04:09:22 22° WSW
Cosmos 1633 3.8 04:10:16 22° WSW 04:11:25 27° WNW 04:14:33 10° NNW
ATLAS 5 CENTAUR R/B 2.5 04:07:22 10° NW 04:13:20 59° WSW 04:19:40 10° SSE
USA 161 3.2 04:20:42 18° W 04:20:42 18° W 04:22:47 10° NW
USA 129 3.4 04:19:28 10° SE 04:21:24 33° ENE 04:23:15 10° N
Cosmos 2278 Rocket 3.2 04:18:39 16° WSW 04:22:30 33° WNW 04:27:37 10° N
Cosmos 2297 3.9 04:20:31 18° SW 04:24:47 60° WNW 04:30:26 10° NNE
Cosmos 2173 Rocket 3.9 04:19:29 10° S 04:25:32 83° W 04:31:45 10° N
Centaur AC-125 4.5 04:25:57 10° S 04:26:49 11° SSE 04:27:54 10° SSE
Cosmos 1400 Rocket 4.2 04:26:04 17° WSW 04:27:58 23° WNW 04:31:10 10° NNW
CZ-2C R/B 4.2 04:24:10 10° SSE 04:28:53 69° ENE 04:33:39 10° N
Cosmos 2285 Rocket 4.5 04:27:24 10° S 04:33:33 60° ESE 04:39:45 10° NNE
CZ-2D R/B 3.4 04:32:48 10° N 04:36:50 76° WNW 04:40:54 10° SSW
Cosmos 1459 Rocket 4.1 04:31:38 10° SSW 04:37:56 65° W 04:44:11 10° N
Cosmos 1302 Rocket 4.1 04:33:49 10° SSW 04:39:00 78° ESE 04:44:15 10° NNE
Cosmos 1802 Rocket 4.0 04:35:03 10° SSW 04:41:10 72° W 04:47:19 10° N
Cosmos 2082 Rocket 2.3 04:36:05 10° NNW 04:41:44 61° WSW 04:47:19 10° S
CZ-4B R/B 3.6 04:36:24 10° NNE 04:42:04 69° ESE 04:47:42 10° S
BREEZE-M DEB (TANK) 1.7 04:42:38 14° WSW 04:44:55 83° SSE 04:48:13 10° ENE
USA 234 4.0 04:42:11 10° S 04:47:40 29° SW 04:53:11 10° WNW
Cosmos 2100 Rocket 4.4 04:43:04 10° SSW 04:49:05 49° WNW 04:55:14 10° N
Cosmos 1825 Rocket 4.3 04:48:36 10° N 04:52:55 57° E 04:57:14 10° SSE
PSLV R/B 3.9 04:51:38 12° SW 04:54:39 44° SSE 04:57:52 10° E
APEX 4.4 04:53:09 10° WSW 04:55:34 23° NW 04:58:27 10° N
Cosmos 2084 4.0 04:54:20 10° SSW 04:58:03 47° ESE 05:01:45 10° NE
Cosmos 1743 3.3 04:54:35 10° S 04:58:20 58° E 05:02:07 10° NNE
SME Rocket 4.3 04:56:23 10° SW 04:59:14 20° W 05:02:22 10° NW
Cosmos 1602 Rocket 4.2 04:55:51 10° NNW 04:59:48 35° W 05:03:46 10° SSW
Cosmos 1500 3.2 04:56:07 10° SSW 04:59:58 70° W 05:03:52 10° N
Cosmos 1515 3.7 04:56:16 10° NNW 05:00:03 63° W 05:03:50 10° S
CENTAUR R/B 4.4 04:55:38 10° WNW 05:00:11 16° WSW 05:04:50 10° SW
Cosmos 1346 Rocket 3.0 04:58:51 10° NNW 05:02:49 52° W 05:06:41 10° S
CZ-2D R/B 3.3 05:00:14 10° N 05:04:49 28° WNW 05:09:25 10° WSW
Okean-O 3.3 05:05:01 10° NNE 05:09:23 57° E 05:13:45 10° S
Cosmos 2058 Rocket 4.2 05:05:59 10° SSE 05:10:09 47° E 05:14:20 10° NNE
Cosmos 1066 Rocket 4.1 05:05:43 10° NNW 05:11:11 73° W 05:16:31 10° S
CZ-3B DEB 4.3 05:12:56 10° NW 05:38:54 82° SW 05:46:37 10° SE
